Flag for Netherlands Weather past 2 weeks in Amersfoort, Netherlands

Now
55 °F

Broken clouds.


Feels Like: 54 °F
Forecast: 54 / 60 °F
Wind: 7 mph from West

Location: Deelen

Current Time: Sep 5, 2015 at 9:54:02 AM

Latest Report: Sep 5, 2015 at 9:25 AM


Visibility: N/A

Pressure: 29.95 "Hg

Humidity: 94%

Dew point: 54 °F

Location of AmersfoortLocation

Historic Weather in Amersfoort — Graph

°F

Amersfoort temperature yesterday

Maximum temperature yesterday: 63 °F (at 2:25 PM)
Minimum temperature yesterday: 50 °F (at 1:55 AM)
Average temperature yesterday: 55 °F

Past Weeks' High & Low Weather Summary

 TemperatureHumidityPressure
High82 °F (Aug 31, 2:55 PM)100% (Aug 24, 1:55 AM)30.24 "Hg (Aug 24, 1:55 AM)
Low43 °F (Sep 3, 6:55 AM)37% (Aug 23, 3:25 PM)29.47 "Hg (Aug 24, 3:55 PM)
Average63 °F80%29.91 "Hg
* Reported Aug 21 8:25 AM — Sep 5 8:25 AM, Amersfoort, Weather by CustomWeather, © 2015

Note: Actual official high and low records may vary slightly from our data, if they occured in-between our weather recording intervals... More about our weather records

Advertising

Amersfoort weather history for previous 24 hours

 ConditionsComfort  
Time TempWeatherWind HumidityBarometerVisibility
8:25 AM
Sat, Sep 5
54 °FMostly cloudy.8 mph94%29.92 "HgN/A
7:55 AM54 °FScattered clouds.7 mph94%29.95 "HgN/A
7:25 AM52 °FClear.8 mph100%29.92 "HgN/A
6:55 AM54 °FPassing clouds.6 mph94%29.92 "HgN/A
6:25 AM54 °FMostly cloudy.6 mph100%29.92 "HgN/A
5:55 AM55 °FOvercast.5 mph94%29.92 "HgN/A
5:25 AM55 °FMostly cloudy.5 mph94%29.92 "HgN/A
4:55 AM54 °FPartly cloudy.6 mph100%29.92 "HgN/A
4:25 AM54 °FMostly cloudy.5 mph100%29.92 "HgN/A
3:55 AM54 °FPartly cloudy.6 mph100%29.92 "HgN/A
3:25 AM52 °FPassing clouds.7 mph100%29.92 "HgN/A
2:55 AM54 °FPassing clouds.7 mph94%29.92 "HgN/A
2:25 AM54 °FPassing clouds.7 mph100%29.92 "HgN/A
1:55 AM54 °FPassing clouds.7 mph100%29.92 "HgN/A
1:25 AM54 °FPassing clouds.6 mph100%29.89 "HgN/A
12:55 AM55 °FPassing clouds.5 mph100%29.89 "HgN/A
12:25 AM57 °FPartly cloudy.7 mph94%29.89 "HgN/A
11:55 PM
Fri, Sep 4
57 °FMostly cloudy.7 mph94%29.89 "HgN/A
11:25 PM55 °FPartly cloudy.7 mph100%29.89 "HgN/A
10:55 PM55 °FPartly cloudy.9 mph100%29.86 "HgN/A
10:25 PM57 °FPartly cloudy.7 mph94%29.86 "HgN/A
9:55 PM55 °FPartly cloudy.9 mph100%29.86 "HgN/A
9:25 PM57 °FPartly cloudy.12 mph94%29.86 "HgN/A
8:55 PM55 °FMostly cloudy.9 mph100%29.86 "HgN/A
8:25 PM55 °FBroken clouds.13 mph100%29.86 "HgN/A
7:55 PM55 °FBroken clouds.17 mph100%29.83 "HgN/A
7:25 PM55 °FBroken clouds.18 mph94%29.83 "HgN/A
6:55 PM55 °FBroken clouds.17 mph94%29.86 "HgN/A
6:25 PM55 °FPartly sunny.18 mph94%29.86 "HgN/A
5:55 PM55 °FPartly sunny.16 mph94%29.86 "HgN/A
5:25 PM55 °FBroken clouds.15 mph94%29.86 "HgN/A
4:55 PM57 °FPartly sunny.13 mph88%29.89 "HgN/A
4:25 PM59 °FBroken clouds.18 mph77%29.89 "HgN/A
3:55 PM59 °FBroken clouds.17 mph77%29.89 "HgN/A
3:25 PM59 °FMore clouds than sun.15 mph72%29.89 "HgN/A
2:55 PM61 °FMostly cloudy.18 mph68%29.89 "HgN/A
2:25 PM63 °FScattered clouds.14 mph73%29.89 "HgN/A
1:55 PM61 °FBroken clouds.12 mph83%29.89 "HgN/A
1:25 PM59 °FScattered clouds.10 mph88%29.89 "HgN/A
12:55 PM57 °FBroken clouds.10 mph94%29.89 "HgN/A
12:25 PM57 °FPartly sunny.13 mph88%29.89 "HgN/A
11:55 AM57 °FPartly sunny.12 mph88%29.92 "HgN/A
11:25 AM57 °FMostly cloudy.14 mph88%29.89 "HgN/A
10:55 AM57 °FMostly cloudy.16 mph88%29.89 "HgN/A
10:25 AM55 °FBroken clouds.13 mph88%29.89 "HgN/A
9:55 AM54 °FMostly cloudy.14 mph94%29.89 "HgN/A
9:25 AM54 °FMostly cloudy.12 mph94%29.89 "HgN/A
Weather by CustomWeather, © 2015

See weather overviewHow to use our weather pages